カタログに戻る

ONEWEB-0595

運用中通信PO
NORAD 54661·PAYLOAD·🇬🇧 United Kingdom

打ち上げ Dec 8, 2022 から Cape Canaveral Space Force Station

Loading…

次のパス (今後24時間)

TLE

最新Source: CelesTrak SupGP

元期: Sep 14, 2026, 17:39 UTC

1 54661C 22166V   26257.73593010  .00001513  00000+0  36686-2 0  2576
2 54661  87.9285 226.1522 0001910  79.6688 314.0902 13.21825222    16

AllMySatでONEWEB-0595をリアルタイム追跡

Download on the App Store